Location: Sternwarte_Laufen
(47.9344°N, 12.9346°E)
Time: 19:33:38
(UTC+02:00)

Tiangong 2 - Visible Passes

Search period start: 16 August 2017 00:00
Search period end: 26 August 2017 00:00
Orbit: 390 x 395 km, 42.8° (Epoch: 16 August)

Date Brightness Start Highest point End Pass type
(mag) Time Alt. Az. Time Alt. Az. Time Alt. Az.
20 Aug 3.4 05:15:47 10° SSW 05:17:44 15° SSE 05:19:42 10° ESE visible
21 Aug 3.7 04:20:51 11° SSE 04:20:57 11° SSE 04:21:43 10° SE visible
22 Aug 2.8 04:58:48 16° SSW 05:00:20 21° SSE 05:02:52 10° ESE visible
23 Aug 3.5 04:04:22 15° SE 04:04:22 15° SE 04:05:36 10° ESE visible
23 Aug 2.3 05:36:58 10° WSW 05:39:52 31° S 05:42:46 10° ESE visible
24 Aug 2.3 04:42:19 25° S 04:42:57 27° S 04:45:45 10° ESE visible
25 Aug 3.7 03:47:54 14° ESE 03:47:54 14° ESE 03:48:40 10° ESE visible
25 Aug 2.1 05:20:16 14° WSW 05:22:32 32° S 05:25:27 10° ESE visible
